EW9837 Weather Reports


Display with metric or nautical units.
time (UTC)temp
F
wind
direction
speed
MPH
gust
MPH
rain 1hr
in
rain 24hr
in
rain mn
in
humidity
%
barometer
mb
20210804003041 86 255 5.0 0.0 0.00 0.00 0.00 48 1017.4
20210804001544 86 244 5.0 0.0 0.00 0.00 0.00 47 1017.4
20210804000044 88 240 7.0 0.0 0.00 0.00 0.00 46 1017.4
20210803234536 90 271 4.0 0.0 0.00 0.00 0.00 45 1017.7
20210803233035 91 347 4.0 0.0 0.00 0.00 0.00 44 1017.7
20210803231541 90 23 2.0 0.0 0.00 0.00 0.00 44 1017.7
20210803230032 90 82 2.0 0.0 0.00 0.00 0.00 45 1017.7
20210803224541 90 78 2.0 0.0 0.00 0.00 0.00 46 1017.7
20210803223038 89 74 3.0 0.0 0.00 0.00 0.00 45 1018.1
20210803221539 91 70 3.0 0.0 0.00 0.00 0.00 43 1018.1
20210803220045 91 11 3.0 0.0 0.00 0.00 0.00 40 1018.1
20210803214553 92 359 4.0 0.0 0.00 0.00 0.00 40 1018.1
20210803213038 93 5 3.0 0.0 0.00 0.00 0.00 38 1018.4
20210803211539 94 331 3.0 0.0 0.00 0.00 0.00 39 1018.4
20210803210115 94 353 1.0 0.0 0.00 0.00 0.00 40 1018.4
20210803204539 94 335 0.0 0.0 0.00 0.00 0.00 41 1018.8
20210803203049 91 18 1.0 0.0 0.00 0.00 0.00 42 1018.8
20210803201540 92 34 0.0 0.0 0.00 0.00 0.00 40 1019.1
20210803200039 93 340 2.0 0.0 0.00 0.00 0.00 40 1019.1
20210803194533 89 78 1.0 0.0 0.00 0.00 0.00 42 1019.5
20210803191539 92 325 1.0 0.0 0.00 0.00 0.00 40 1019.5
20210803190039 93 225 1.0 0.0 0.00 0.00 0.00 42 1019.9
20210803184546 92 198 1.0 0.0 0.00 0.00 0.00 42 1019.9
20210803183037 91 300 0.0 0.0 0.00 0.00 0.00 40 1020.2
20210803181527 89 328 0.0 0.0 0.00 0.00 0.00 41 1020.2
20210803180038 88 33 0.0 0.0 0.00 0.00 0.00 42 1020.2
20210803174537 84 21 0.0 0.0 0.00 0.00 0.00 47 1020.2
20210803173039 81 359 1.0 0.0 0.00 0.00 0.00 48 1020.6
20210803171546 82 5 2.0 0.0 0.00 0.00 0.00 46 1020.6
20210803170046 84 352 1.0 0.0 0.00 0.00 0.00 45 1020.6
20210803164537 85 182 0.0 0.0 0.00 0.00 0.00 49 1020.6
20210803163040 82 180 0.0 0.0 0.00 0.00 0.00 53 1020.6
20210803161541 80 180 0.0 0.0 0.00 0.00 0.00 57 1020.9
20210803160037 76 180 0.0 0.0 0.00 0.00 0.00 64 1020.9
20210803154529 75 180 0.0 0.0 0.00 0.00 0.00 67 1020.9
20210803153046 73 180 0.0 0.0 0.00 0.00 0.00 74 1020.9
20210803151533 70 180 0.0 0.0 0.00 0.00 0.00 85 1020.9
20210803150040 66 180 1.0 0.0 0.00 0.00 0.00 92 1020.9
20210803144611 62 180 2.0 0.0 0.00 0.00 0.00 95 1020.9
20210803143116 60 167 2.0 0.0 0.00 0.00 0.00 96 1020.9
20210803141527 59 169 3.0 0.0 0.00 0.00 0.00 96 1020.9
20210803140043 57 180 2.0 0.0 0.00 0.00 0.00 96 1020.9
20210803134541 56 165 3.0 0.0 0.00 0.00 0.00 95 1020.9
20210803133047 56 165 3.0 0.0 0.00 0.00 0.00 95 1020.6
20210803131530 56 176 4.0 0.0 0.00 0.00 0.00 95 1020.6
20210803130040 56 177 3.0 0.0 0.00 0.00 0.00 95 1020.6
20210803124551 56 167 3.0 0.0 0.00 0.00 0.00 94 1020.6
20210803123036 56 161 3.0 0.0 0.00 0.00 0.00 94 1020.6
20210803121534 56 168 3.0 0.0 0.00 0.00 0.00 94 1020.6
20210803120103 56 168 3.0 0.0 0.00 0.00 0.00 94 1020.6
20210803114559 56 180 3.0 0.0 0.00 0.00 0.00 94 1020.6
20210803113036 57 180 4.0 0.0 0.00 0.00 0.00 93 1020.6
20210803111534 57 151 3.0 0.0 0.00 0.00 0.00 93 1020.6
20210803110100 57 173 3.0 0.0 0.00 0.00 0.00 93 1020.6
20210803104544 57 157 3.0 0.0 0.00 0.00 0.00 92 1020.6
20210803103051 57 173 4.0 0.0 0.00 0.00 0.00 91 1020.6
20210803101545 58 180 2.0 0.0 0.00 0.00 0.00 91 1020.6
20210803100048 58 180 3.0 0.0 0.00 0.00 0.00 91 1020.6
20210803094550 58 202 2.0 0.0 0.00 0.00 0.00 91 1020.6
20210803093041 58 162 3.0 0.0 0.00 0.00 0.00 90 1020.6
20210803091543 58 162 3.0 0.0 0.00 0.00 0.00 90 1020.6
20210803090048 59 180 4.0 0.0 0.00 0.00 0.00 90 1020.6
20210803084549 59 180 4.0 0.0 0.00 0.00 0.00 90 1020.6
20210803083042 59 174 4.0 0.0 0.00 0.00 0.00 88 1020.6
20210803081617 60 171 3.0 0.0 0.00 0.00 0.00 87 1020.6
20210803080043 60 196 3.0 0.0 0.00 0.00 0.00 87 1020.6
20210803074548 60 149 2.0 0.0 0.00 0.00 0.00 87 1020.6
20210803073040 61 166 3.0 0.0 0.00 0.00 0.00 87 1020.6
20210803071552 61 180 4.0 0.0 0.00 0.00 0.00 86 1020.6
20210803070034 62 169 2.0 0.0 0.00 0.00 0.00 84 1020.6
20210803064541 62 144 3.0 0.0 0.00 0.00 0.00 83 1020.6
20210803063030 63 154 3.0 0.0 0.00 0.00 0.00 83 1020.6
20210803061551 64 162 3.0 0.0 0.00 0.00 0.00 81 1020.6
20210803060036 64 153 3.0 0.0 0.00 0.00 0.00 79 1020.6
20210803054616 65 151 1.0 0.0 0.00 0.00 0.00 78 1020.6
20210803053030 65 164 3.0 0.0 0.00 0.00 0.00 78 1020.6
20210803051541 66 180 4.0 0.0 0.00 0.00 0.00 80 1020.6
20210803050039 67 161 3.0 0.0 0.00 0.00 0.00 79 1020.6
20210803044532 67 151 3.0 0.0 0.00 0.00 0.00 74 1020.2
20210803043042 67 171 3.0 0.0 0.00 0.00 0.00 77 1020.2
20210803041543 69 161 3.0 0.0 0.00 0.00 0.00 76 1020.2
20210803040040 69 153 4.0 0.0 0.00 0.00 0.00 74 1019.9
20210803034528 70 158 4.0 0.0 0.00 0.00 0.00 76 1019.5
20210803033056 73 165 4.0 0.0 0.00 0.00 0.00 76 1019.5
20210803031536 75 192 3.0 0.0 0.00 0.00 0.00 74 1019.5
20210803030032 77 215 3.0 0.0 0.00 0.00 0.00 77 1019.5
20210803024531 79 201 1.0 0.0 0.00 0.00 0.00 81 1019.1
20210803023041 81 180 1.0 0.0 0.00 0.00 0.00 79 1019.1
20210803021538 83 180 2.0 0.0 0.00 0.00 0.00 76 1019.1
20210803020116 85 180 1.0 0.0 0.00 0.00 0.00 72 1019.1
20210803014541 88 203 1.0 0.0 0.00 0.00 0.00 66 1019.5
20210803013054 89 247 0.0 0.0 0.00 0.00 0.00 52 1019.5
20210803011548 91 247 0.0 0.0 0.00 0.00 0.00 62 1019.5
20210803010036 91 254 0.0 0.0 0.00 0.00 0.00 59 1019.1
20210803004616 90 330 0.0 0.0 0.00 0.00 0.00 51 1019.1